Location: Unspecified
(0.0000°N, 0.0000°E)
Time: 05:04:02
(UTC+00:00)

Explorer 11/Cluster Stage 4 - All Passes

Search period start: 29 November 2014 00:00
Search period end: 09 December 2014 00:00
Orbit: 468 x 1279 km, 28.8° (Epoch: 27 November)

Date Brightness Start Highest point End Pass type
(mag) Time Alt. Az. Time Alt. Az. Time Alt. Az.
29 Nov - 01:04:32 10° SW 01:08:25 40° SSE 01:13:06 10° ENE night (unlit)
29 Nov - 02:52:45 10° W 02:57:10 36° NNW 03:02:38 10° NE visible
29 Nov - 04:44:56 10° NW 04:47:07 12° NNW 04:49:27 10° N visible
29 Nov - 10:18:06 10° N 10:22:02 14° NNE 10:25:55 10° NE daylight
29 Nov - 12:05:15 10° NW 12:12:39 37° NNE 12:19:14 10° E daylight
29 Nov - 13:54:37 10° WNW 14:02:21 73° SSW 14:08:39 10° SE daylight
29 Nov - 15:47:01 10° WSW 15:51:23 18° SSW 15:55:13 10° S daylight
30 Nov - 00:57:09 10° SW 01:01:03 54° SSE 01:05:46 10° ENE night (unlit)
30 Nov - 02:45:55 10° W 02:49:54 27° NNW 02:54:41 10° NNE visible
30 Nov - 10:09:50 10° NNW 10:14:43 17° NNE 10:19:32 10° ENE daylight
30 Nov - 11:57:21 10° NW 12:05:10 45° NNE 12:12:09 10° E daylight
30 Nov - 13:47:03 10° WNW 13:54:48 60° SSW 14:01:14 10° SE daylight
30 Nov - 15:40:12 10° WSW 15:43:58 15° SSW 15:47:22 10° S daylight
01 Dec - 00:49:50 10° SW 00:53:43 76° SSE 00:58:21 10° ENE night (unlit)
01 Dec - 02:39:14 10° WNW 02:42:39 20° NNW 02:46:37 10° NNE night (unlit)
01 Dec - 10:01:42 10° NNW 10:07:21 20° NNE 10:12:55 10° ENE daylight
01 Dec - 11:49:31 10° NW 11:57:38 54° NNE 12:04:57 10° ESE daylight
01 Dec - 13:39:34 10° WNW 13:47:14 49° SSW 13:53:43 10° SE daylight
01 Dec - 15:33:36 10° SW 15:36:34 13° SSW 15:39:20 10° S daylight
01 Dec - 22:56:13 10° S 22:58:02 13° SSE 22:59:54 10° ESE night (unlit)
02 Dec - 00:42:36 10° WSW 00:46:23 76° NNW 00:50:51 10° NE night (unlit)
02 Dec - 02:32:50 10° WNW 02:35:26 15° NNW 02:38:20 10° NNE night (unlit)
02 Dec - 09:53:41 10° NNW 09:59:54 23° NNE 10:06:08 10° ENE daylight
02 Dec - 11:41:44 10° NW 11:50:03 65° NNE 11:57:39 10° ESE daylight
02 Dec - 13:32:10 10° W 13:39:39 41° SSW 13:46:08 10° SE daylight
02 Dec - 15:27:26 10° SW 15:29:12 11° SSW 15:30:55 10° SSW daylight
02 Dec - 22:48:11 10° SSW 22:50:44 18° SSE 22:53:20 10° ESE night (unlit)
03 Dec - 00:35:27 10° WSW 00:39:05 51° NNW 00:43:16 10° NE night (unlit)
03 Dec - 02:27:10 10° NW 02:28:14 11° NNW 02:29:21 10° N night (unlit)
03 Dec - 09:45:44 10° NNW 09:52:25 28° NNE 09:59:11 10° E daylight
03 Dec - 11:34:02 10° NW 11:42:26 78° NNE 11:50:16 10° ESE daylight
03 Dec - 13:24:51 10° W 13:32:04 35° SSW 13:38:29 10° SSE daylight
03 Dec - 22:40:24 10° SSW 22:43:26 25° SSE 22:46:30 10° E night (unlit)
04 Dec - 00:28:24 10° W 00:31:48 35° NNW 00:35:36 10° NE night (unlit)
04 Dec - 07:52:57 10° N 07:54:28 11° NNE 07:56:01 10° NNE daylight
04 Dec - 09:37:52 10° NNW 09:44:53 32° NNE 09:52:06 10° E daylight
04 Dec - 11:26:23 10° WNW 11:34:47 88° SSW 11:42:47 10° ESE daylight
04 Dec - 13:17:37 10° W 13:24:31 29° SSW 13:30:45 10° SSE daylight
04 Dec - 22:32:45 10° SW 22:36:07 35° SSE 22:39:29 10° E night (unlit)
05 Dec - 00:21:29 10° W 00:24:31 24° NNW 00:27:49 10° NNE night (unlit)
05 Dec - 07:44:14 10° N 07:47:08 12° NNE 07:50:09 10° NE daylight
05 Dec - 09:30:03 10° NW 09:37:18 38° NNE 09:44:54 10° E daylight
05 Dec - 11:18:49 10° WNW 11:27:08 75° SSW 11:35:13 10° SE daylight
05 Dec - 13:10:30 10° W 13:16:58 25° SSW 13:22:57 10° SSE daylight
05 Dec - 22:25:11 10° SW 22:28:49 52° SSE 22:32:20 10° ENE night (unlit)
06 Dec - 00:14:45 10° WNW 00:17:15 17° NNW 00:19:52 10° NNE night (unlit)
06 Dec - 07:36:00 10° N 07:39:44 15° NNE 07:43:43 10° ENE daylight
06 Dec - 09:22:18 10° NW 09:29:41 46° NNE 09:37:36 10° E daylight
06 Dec - 11:11:19 10° WNW 11:19:29 63° SSW 11:27:34 10° SE daylight
06 Dec - 13:03:30 10° WSW 13:09:27 21° SSW 13:15:04 10° SSE daylight
06 Dec - 20:31:10 10° S 20:32:45 12° SSE 20:34:15 10° SE visible
06 Dec - 22:17:42 10° WSW 22:21:30 79° SSE 22:25:05 10° ENE night (unlit)
07 Dec - 00:08:23 10° NW 00:09:58 12° NNW 00:11:36 10° N night (unlit)
07 Dec - 07:27:57 10° N 07:32:18 17° NNE 07:37:01 10° ENE daylight
07 Dec - 09:14:37 10° NW 09:22:02 54° NNE 09:30:11 10° ESE daylight
07 Dec - 11:03:55 10° WNW 11:11:50 53° SSW 11:19:50 10° SE daylight
07 Dec - 12:56:38 10° WSW 13:01:59 18° SSW 13:07:05 10° SSE daylight
07 Dec - 20:22:40 10° SSW 20:25:30 17° SSE 20:28:05 10° ESE visible
07 Dec - 22:10:18 10° WSW 22:14:10 69° NNW 22:17:44 10° NE night (unlit)
08 Dec - 07:20:01 10° NNW 07:24:49 20° NNE 07:30:08 10° ENE daylight
08 Dec - 09:06:59 10° NW 09:14:23 65° NNE 09:22:40 10° ESE daylight
08 Dec - 10:56:35 10° W 11:04:12 44° SSW 11:12:02 10° SE daylight
08 Dec - 12:49:56 10° WSW 12:54:32 16° SSW 12:59:00 10° S daylight
08 Dec - 20:14:33 10° SSW 20:18:14 23° SSE 20:21:27 10° E visible
08 Dec - 22:02:58 10° WSW 22:06:49 46° NNW 22:10:18 10° NE night (unlit)
